Weather History for Jacksonville, IL

Change the Weather History Date:

Wednesday, March 21, 2012

  Actual Average (KSPI) Record (KSPI)
Temperature  
Mean Temperature 72 °F 44 °F  
Max Temperature 82 °F 54 °F 91 °F (1907)
Min Temperature 61 °F 34 °F 7 °F (1960)
Degree Days  
Heating Degree Days 0 21  
Month to date heating degree days 521  
Since 1 July heating degree days 4792  
Cooling Degree Days 6 0  
Month to date cooling degree days 0  
Year to date cooling degree days 0  
Growing Degree Days 22 (Base 50)    
Moisture  
Dew Point 56 °F    
Average Humidity 57    
Maximum Humidity 84    
Minimum Humidity 37    
Precipitation  
Precipitation 0.00 in 0.08 in 1.01 in (1948)
Month to date precipitation 1.72  
Year to date precipitation 5.35  
Snow  
Snow 0.00 in 0.00 in 5.50 in (2006)
Month to date snowfall 2.0  
Since 1 July snowfall 20.1  
Snow Depth -    
Sea Level Pressure  
Sea Level Pressure 29.99 in    
Wind  
Wind Speed 10 mph (SE)    
Max Wind Speed 22 mph    
Max Gust Speed 29 mph    
Visibility 10 miles    
Events      
T = Trace of Precipitation, MM = Missing Value Source: NWS Daily Summary

Daily Weather History Graph

Daily Weather History Graph

Search for Another Location

Airport:

Trip Planner

Search our weather history database for the weather conditions in past years. The results will help you decide how hot, cold, wet, or windy it might be!

Date:

Astronomy

Mar. 21, 2012 Rise Set
Actual Time 7:01 AM CDT 7:14 PM CDT
Civil Twilight 6:35 AM CDT 7:41 PM CDT
Nautical Twilight 6:03 AM CDT 8:13 PM CDT
Astronomical Twilight 5:31 AM CDT 8:45 PM CDT
Moon 6:12 AM CDT (3/21) 6:41 PM CDT (3/21)
Length of Visible Light 13h 06m
Length of Day
12h 12m
Waning Crescent, 1% of the Moon is Illuminated
Mar 21
Waning Crescent
Mar 22
New
Mar 30
First Quarter
Apr 6
Full
Apr 13
Last Quarter

Hourly Weather History & Observations

Time (CDT) Temp. Heat Index Dew Point Humidity Pressure Visibility Wind Dir Wind Speed Gust Speed Precip Events Conditions
12:15 AM 69.4 °F - 56.8 °F 64% 29.97 in 10.0 mi ESE 10.4 mph - N/A   Scattered Clouds
12:35 AM 69.1 °F - 57.4 °F 66% 29.96 in 10.0 mi SE 9.2 mph - N/A   Mostly Cloudy
12:55 AM 69.6 °F - 58.1 °F 67% 29.96 in 10.0 mi ESE 10.4 mph - N/A   Mostly Cloudy
1:15 AM 70.0 °F - 58.5 °F 67% 29.96 in 10.0 mi ESE 10.4 mph - N/A   Overcast
1:35 AM 70.0 °F - 58.5 °F 67% 29.96 in 10.0 mi SE 8.1 mph - N/A   Overcast
1:55 AM 70.9 °F - 57.6 °F 63% 29.97 in 10.0 mi South 5.8 mph - N/A   Scattered Clouds
2:15 AM 70.3 °F - 57.2 °F 63% 29.98 in 10.0 mi South 3.5 mph - N/A   Clear
2:35 AM 69.8 °F - 57.2 °F 64% 29.98 in 10.0 mi Calm Calm - N/A   Clear
2:55 AM 68.7 °F - 57.2 °F 67% 29.97 in 10.0 mi Calm Calm - N/A   Scattered Clouds
3:15 AM 66.7 °F - 57.2 °F 71% 29.97 in 10.0 mi ESE 4.6 mph - N/A   Scattered Clouds
3:35 AM 63.9 °F - 56.7 °F 77% 29.96 in 10.0 mi East 6.9 mph - N/A   Clear
3:55 AM 63.0 °F - 56.3 °F 79% 29.96 in 10.0 mi ESE 4.6 mph - N/A   Clear
4:15 AM 62.4 °F - 56.3 °F 80% 29.96 in 10.0 mi ESE 6.9 mph - N/A   Clear
4:35 AM 62.6 °F - 56.5 °F 80% 29.96 in 10.0 mi East 9.2 mph - N/A   Clear
4:55 AM 62.8 °F - 56.8 °F 81% 29.97 in 10.0 mi East 9.2 mph - N/A   Clear
5:15 AM 62.6 °F - 57.2 °F 82% 29.97 in 10.0 mi ESE 6.9 mph - N/A   Clear
5:35 AM 61.7 °F - 56.7 °F 84% 29.98 in 10.0 mi ESE 6.9 mph - N/A   Clear
5:55 AM 62.2 °F - 56.7 °F 82% 29.99 in 10.0 mi ESE 6.9 mph - N/A   Clear
6:15 AM 63.7 °F - 56.8 °F 78% 30.00 in 10.0 mi SE 6.9 mph - N/A   Clear
6:35 AM 63.1 °F - 56.7 °F 79% 30.01 in 10.0 mi SE 5.8 mph - N/A   Clear
6:55 AM 63.3 °F - 56.5 °F 78% 30.02 in 10.0 mi SE 6.9 mph - N/A   Clear
7:15 AM 64.4 °F - 56.5 °F 75% 30.02 in 10.0 mi SE 6.9 mph - N/A   Clear
7:35 AM 65.1 °F - 57.2 °F 75% 30.03 in 10.0 mi ESE 8.1 mph - N/A   Clear
7:55 AM 65.7 °F - 57.4 °F 75% 30.04 in 10.0 mi ESE 6.9 mph - N/A   Clear
8:15 AM 66.4 °F - 57.4 °F 73% 30.05 in 10.0 mi SE 8.1 mph - N/A   Clear
8:35 AM 67.6 °F - 58.6 °F 73% 30.05 in 10.0 mi ESE 6.9 mph - N/A   Clear
8:55 AM 69.8 °F - 58.8 °F 68% 30.04 in 10.0 mi SE 8.1 mph - N/A   Clear
9:15 AM 72.7 °F - 58.1 °F 60% 30.04 in 10.0 mi SE 11.5 mph - N/A   Clear
9:35 AM 74.8 °F - 57.7 °F 55% 30.04 in 10.0 mi SE 9.2 mph - N/A   Clear
9:55 AM 75.4 °F - 56.7 °F 52% 30.04 in 10.0 mi SSE 12.7 mph - N/A   Clear
10:15 AM 77.2 °F - 57.0 °F 50% 30.04 in 10.0 mi SSE 16.1 mph 24.2 mph N/A   Clear
10:35 AM 78.1 °F - 55.8 °F 46% 30.04 in 10.0 mi SE 19.6 mph 24.2 mph N/A   Clear
10:55 AM 78.6 °F - 53.2 °F 41% 30.04 in 10.0 mi SSE 15.0 mph 21.9 mph N/A   Clear
11:15 AM 79.0 °F - 53.1 °F 40% 30.03 in 10.0 mi SSE 17.3 mph 25.3 mph N/A   Clear
11:35 AM 80.2 °F 80.1 °F 54.0 °F 40% 30.02 in 10.0 mi SSE 10.4 mph 20.7 mph N/A   Clear
11:55 AM 80.6 °F - 52.3 °F 37% 30.02 in 10.0 mi South 19.6 mph 26.5 mph N/A   Clear
12:15 PM 80.8 °F - 52.0 °F 37% 30.01 in 10.0 mi South 16.1 mph 28.8 mph N/A   Clear
12:35 PM 81.3 °F 80.7 °F 53.2 °F 38% 30.01 in 10.0 mi South 17.3 mph 26.5 mph N/A   Clear
12:55 PM 81.5 °F 80.8 °F 53.8 °F 38% 30.01 in 10.0 mi SSE 15.0 mph 25.3 mph N/A   Clear
1:15 PM 82.0 °F 81.3 °F 54.1 °F 38% 30.01 in 10.0 mi South 21.9 mph 27.6 mph N/A   Clear
1:35 PM 82.6 °F 81.7 °F 54.5 °F 38% 30.00 in 10.0 mi South 17.3 mph 25.3 mph N/A   Scattered Clouds
1:55 PM 80.6 °F 80.4 °F 54.5 °F 40% 30.00 in 10.0 mi South 12.7 mph 19.6 mph N/A   Scattered Clouds
2:15 PM 81.3 °F 81.0 °F 55.8 °F 41% 30.00 in 10.0 mi SSE 16.1 mph 23.0 mph N/A   Scattered Clouds
2:35 PM 80.6 °F 80.4 °F 54.9 °F 41% 29.99 in 10.0 mi SSE 17.3 mph 25.3 mph N/A   Clear
2:55 PM 80.8 °F 80.6 °F 54.9 °F 41% 29.98 in 10.0 mi SSE 12.7 mph 18.4 mph N/A   Clear
3:15 PM 80.8 °F 80.5 °F 54.5 °F 40% 29.98 in 10.0 mi SSE 15.0 mph 23.0 mph N/A   Clear
3:35 PM 80.8 °F 80.6 °F 55.0 °F 41% 29.98 in 10.0 mi SSE 16.1 mph 25.3 mph N/A   Clear
3:55 PM 81.5 °F 81.1 °F 55.4 °F 41% 29.97 in 10.0 mi SSE 15.0 mph 20.7 mph N/A   Scattered Clouds
4:15 PM 80.6 °F 80.7 °F 56.7 °F 44% 29.97 in 10.0 mi SE 13.8 mph 19.6 mph N/A   Scattered Clouds
4:35 PM 80.2 °F 80.4 °F 56.1 °F 43% 29.96 in 10.0 mi SE 13.8 mph 19.6 mph N/A   Clear
4:55 PM 80.4 °F 80.5 °F 56.1 °F 43% 29.96 in 10.0 mi SE 12.7 mph 23.0 mph N/A   Clear
5:15 PM 80.2 °F 80.4 °F 55.9 °F 43% 29.96 in 10.0 mi SE 11.5 mph - N/A   Clear
5:35 PM 80.1 °F 80.3 °F 56.5 °F 44% 29.95 in 10.0 mi SE 15.0 mph - N/A   Scattered Clouds
5:55 PM 79.9 °F - 55.2 °F 43% 29.96 in 10.0 mi SE 16.1 mph 20.7 mph N/A   Scattered Clouds
6:15 PM 79.7 °F - 55.4 °F 43% 29.96 in 10.0 mi SE 10.4 mph - N/A   Clear
6:35 PM 79.2 °F - 55.6 °F 44% 29.96 in 10.0 mi SE 9.2 mph - N/A   Clear
6:55 PM 78.1 °F - 55.9 °F 46% 29.96 in 10.0 mi SE 8.1 mph - N/A   Clear
7:15 PM 77.4 °F - 56.1 °F 48% 29.95 in 10.0 mi SE 8.1 mph - N/A   Clear
7:35 PM 75.7 °F - 56.8 °F 52% 29.95 in 10.0 mi ESE 6.9 mph - N/A   Clear
7:55 PM 75.2 °F - 57.2 °F 53% 29.95 in 10.0 mi ESE 6.9 mph - N/A   Clear
8:15 PM 74.5 °F - 57.4 °F 55% 29.96 in 10.0 mi ESE 8.1 mph - N/A   Clear
8:35 PM 74.3 °F - 57.7 °F 56% 29.96 in 10.0 mi SE 5.8 mph - N/A   Clear
8:55 PM 74.3 °F - 57.6 °F 56% 29.97 in 10.0 mi ESE 8.1 mph - N/A   Scattered Clouds
9:15 PM 73.4 °F - 57.6 °F 58% 29.98 in 10.0 mi ESE 6.9 mph - N/A   Scattered Clouds
9:35 PM 74.1 °F - 57.0 °F 55% 29.98 in 10.0 mi ESE 10.4 mph - N/A   Mostly Cloudy
9:55 PM 74.5 °F - 56.1 °F 53% 29.98 in 10.0 mi ESE 10.4 mph - N/A   Overcast
10:15 PM 74.3 °F - 55.4 °F 52% 29.98 in 10.0 mi ESE 10.4 mph - N/A   Mostly Cloudy
10:35 PM 73.4 °F - 55.4 °F 53% 29.98 in 10.0 mi ESE 12.7 mph - N/A   Scattered Clouds
10:55 PM 73.8 °F - 55.0 °F 52% 29.98 in 10.0 mi ESE 12.7 mph - N/A   Mostly Cloudy
11:15 PM 73.6 °F - 55.2 °F 53% 29.98 in 10.0 mi ESE 15.0 mph - N/A   Overcast
11:35 PM 73.0 °F - 55.4 °F 54% 29.98 in 10.0 mi ESE 12.7 mph 18.4 mph N/A   Mostly Cloudy
11:55 PM 72.7 °F - 55.4 °F 55% 29.98 in 10.0 mi ESE 11.5 mph - N/A   Scattered Clouds